| time (UTC) | temp F | wind direction | speed knots | gust knots | rain 1hr in | rain 24hr in | rain mn in | humidity % | barometer mb |
| 20260506143505 | 46 | 80 | 12.2 | 16.5 | 0.00 | 0.00 | 0.00 | 1018.0 | |
| 20260506140505 | 46 | 80 | 12.2 | 16.5 | 0.00 | 0.00 | 0.00 | 1018.0 | |
| 20260506133505 | 45 | 79 | 11.3 | 14.8 | 0.00 | 0.00 | 0.00 | 1018.0 | |
| 20260506130505 | 45 | 79 | 11.3 | 14.8 | 0.00 | 0.00 | 0.00 | 1018.0 | |
| 20260506123506 | 44 | 80 | 9.6 | 13.0 | 0.00 | 0.00 | 0.00 | 1018.0 | |
| 20260506120506 | 44 | 81 | 9.6 | 13.9 | 0.00 | 0.00 | 0.00 | 1019.0 | |
| 20260506113506 | 45 | 88 | 7.8 | 11.3 | 0.00 | 0.00 | 0.00 | 1019.0 | |
| 20260506110506 | 45 | 88 | 7.8 | 11.3 | 0.00 | 0.00 | 0.00 | 1019.0 | |
| 20260506103506 | 45 | 87 | 7.0 | 9.6 | 0.00 | 0.00 | 0.00 | 1019.0 | |
| 20260506100506 | 45 | 87 | 7.0 | 9.6 | 0.00 | 0.00 | 0.00 | 1019.0 | |
| 20260506093506 | 45 | 75 | 7.0 | 9.6 | 0.00 | 0.00 | 0.00 | 1019.0 | |
| 20260506090506 | 45 | 75 | 7.0 | 9.6 | 0.00 | 0.00 | 0.00 | 1019.0 | |
| 20260506083505 | 44 | 64 | 7.0 | 10.4 | 0.00 | 0.00 | 0.00 | 1019.0 | |
| 20260506080505 | 44 | 64 | 7.0 | 10.4 | 0.00 | 0.00 | 0.00 | 1019.0 | |
| 20260506073505 | 44 | 52 | 7.8 | 11.3 | 0.00 | 0.00 | 0.00 | 1019.0 | |
| 20260506070505 | 44 | 52 | 7.8 | 11.3 | 0.00 | 0.00 | 0.00 | 1019.0 | |
| 20260506060505 | 44 | 38 | 8.7 | 12.2 | 0.00 | 0.00 | 0.00 | 1019.0 | |
| 20260506050505 | 44 | 27 | 8.7 | 12.2 | 0.00 | 0.00 | 0.00 | 1019.0 | |
| 20260506043506 | 44 | 26 | 6.1 | 9.6 | 0.00 | 0.00 | 0.00 | 1019.0 | |
| 20260506040506 | 44 | 26 | 6.1 | 9.6 | 0.00 | 0.00 | 0.00 | 1019.0 | |
| 20260506033506 | 45 | 49 | 4.3 | 7.8 | 0.00 | 0.00 | 0.00 | 1019.0 | |
| 20260506030506 | 45 | 49 | 4.3 | 7.8 | 0.00 | 0.00 | 0.00 | 1019.0 | |
| 20260506023506 | 45 | 69 | 6.1 | 8.7 | 0.00 | 0.00 | 0.00 | 1019.0 | |
| 20260506020506 | 45 | 69 | 6.1 | 8.7 | 0.00 | 0.00 | 0.00 | 1019.0 | |
| 20260506013505 | 45 | 72 | 6.1 | 9.6 | 0.00 | 0.00 | 0.00 | 1019.0 | |
| 20260506010506 | 45 | 72 | 6.1 | 9.6 | 0.00 | 0.00 | 0.00 | 1019.0 | |
| 20260506003505 | 46 | 73 | 7.0 | 10.4 | 0.00 | 0.00 | 0.00 | 1020.0 | |
| 20260506000505 | 45 | 62 | 7.8 | 11.3 | 0.00 | 0.00 | 0.00 | 1020.0 | |
| 20260505233505 | 46 | 69 | 9.6 | 13.0 | 0.00 | 0.00 | 0.00 | 1020.0 | |
| 20260505230505 | 46 | 69 | 9.6 | 13.0 | 0.00 | 0.00 | 0.00 | 1020.0 | |
| 20260505223505 | 46 | 69 | 11.3 | 15.6 | 0.00 | 0.00 | 0.00 | 1020.0 | |
| 20260505220505 | 46 | 69 | 11.3 | 15.6 | 0.00 | 0.00 | 0.00 | 1020.0 | |
| 20260505213506 | 46 | 76 | 11.3 | 14.8 | 0.00 | 0.00 | 0.00 | 1020.0 | |
| 20260505210505 | 46 | 76 | 11.3 | 14.8 | 0.00 | 0.00 | 0.00 | 1020.0 | |
| 20260505203506 | 45 | 73 | 10.4 | 14.8 | 0.00 | 0.00 | 0.00 | 1020.0 | |
| 20260505200506 | 45 | 73 | 10.4 | 14.8 | 0.00 | 0.00 | 0.00 | 1020.0 | |
| 20260505193506 | 46 | 71 | 10.4 | 13.9 | 0.00 | 0.00 | 0.00 | 1020.0 | |
| 20260505190506 | 46 | 71 | 10.4 | 13.9 | 0.00 | 0.00 | 0.00 | 1020.0 | |
| 20260505183506 | 45 | 69 | 12.2 | 15.6 | 0.00 | 0.00 | 0.00 | 1019.0 | |
| 20260505180506 | 45 | 67 | 13.0 | 17.4 | 0.00 | 0.00 | 0.00 | 1019.0 | |
| 20260505173506 | 45 | 64 | 13.9 | 18.2 | 0.00 | 0.00 | 0.00 | 1019.0 | |
| 20260505170506 | 45 | 64 | 13.9 | 18.2 | 0.00 | 0.00 | 0.00 | 1019.0 | |
| 20260505163505 | 46 | 60 | 13.9 | 18.2 | 0.00 | 0.00 | 0.00 | 1019.0 | |
| 20260505160505 | 46 | 60 | 13.9 | 18.2 | 0.00 | 0.00 | 0.00 | 1019.0 | |
| 20260505150505 | 46 | 55 | 13.9 | 19.1 | 0.00 | 0.00 | 0.00 | 1019.0 |